Location: Gallinara
(44.0333°N, 8.2333°E)
Time: 17:04:34
(UTC+00:00)

Cosmos 540 Rocket - Pass Details

Date: 25 September 2020
Orbit: 741 x 753 km, 74.1° (Epoch: 30 October)

Event Time Altitude Azimuth Distance (km) Brightness Sun altitude
Exits shadow 03:38:55 24° 211° (SSW) 1,505 4.6 -18.4°
Maximum altitude 03:42:00 72° 292° (WNW) 792 3.4 -17.9°
Drops below altitude 10° 03:47:11 10° 17° (NNE) 2,286 6.4 -17.0°
Sets 03:49:35 0° 19° (NNE) 3,215 7.2 -16.6°
